CZ-3B DEB, 40162

Orbit data source: Space-Track

CZ-3B DEB, 40162 is space debris in HEO originally from a launch on Sat, 04 Sep 2010 UTC launched from the Xichang Space Center, China (XSC). Debris objects in space refer to the collection of defunct objects orbiting the Earth. Examples of debris include non-operational satellites, rocket bodies, and fragments generated from explosions, collisions, or faulty payload assembly.

Loading next visibility...
Identifier
40162, 2010-042P
Orbit
HEO
Country
Flag of CNCN / PRC
Related business
Manufacturer
CALT
Mission
Spacecraft
Bus & Motor
Unknown
Mass
Unknown
Launch date (UTC)
2010-09-04 (15 years ago)
Launch vehicle
Unknown
Launch site
Xichang Space Center, China (XSC)
Object type
Payload
Rocket body
Debris
Shape & HBR
Unknown shape, 0.2 m
Radar Cross Section
Medium (>0.1 m² and <1 m²)

Expand to show TLE details & history
Last TLE update: 2 days ago

TLE from 2 days ago
0 CZ-3B DEB
1 40162U 10042P   25346.13242816 -.00000485  00000-0  00000-0 0  9995
2 40162  27.1489 300.8274 7212376 282.6121  11.6992  1.92068079 84619
Epoch: 2025-12-12T03:10Z
TLE epoch observation values (Epoch: 2025-12-12T03:10:41.793Z)
Latitude
-0.0008°
Longitude
171.98992°
Altitude
4,925.907 km
Speed
7.479 km/s
True Right ascension
20h 02m 58s
True Declination
0° 00' 03"
Sunlit
Object was in daylight at epoch
Visualization orbit readout
Latitude
Unknown
Longitude
Unknown
Altitude
Unknown
Speed
Unknown
Apparent Right ascension
Unknown
Apparent Declination
Unknown
Sunlit
N/A
Visualization observer readout
Local Sidereal Time
06:28:23
Azimuth
Unknown
Elevation
Unknown
Doppler factor
Unknown
Orbital elements
Apogee altitude
40,682.64 km
Perigee altitude
1,243.574 km
Semi-major axis
27,341.244 km
Eccentricity
0.72124
Inclination
27.1489°
RAAN
300.8274°
Arg. of periapsis
282.6121°
True anomaly
77.78871°
Mean anomaly
11.6992°
Eccentric anomaly
35.97301°
Mean motion
0.48008 °/min
Orbital period
749.87 mins
BSTAR
0
Loading maneuver chart data...
Computing Atmospheric mass density...
Loading historical data...
Loading historical data...
Loading historical data...
Loading historical data...
Loading historical data...
Loading historical data...
Loading historical data...

Documentation

Showing up to 5 results
|